Карточка аэропорта UNOO

Внимание!
Информация на этой странице в стадии наполнения.
Если вы не увидели какой-то информации, или заметили неточность - пожалуйста сообщите нам!
Спасибо!
Команда RU-STAFF
Название аэропортаЦентральный
Название аэропорта (англ.)Tsentralny
Превышение312 ft. (95.1 m.)
Координаты54°58.02', 73°18.6'
Высота перехода900m
Эшелон переходаQFE>=733:FL50; QFE<733:FL60;
Коды ответчика5440-5457
Зона ОрВДНовосибирск РПИ (UNNT)
Данные METARUNOO 251030Z 29004MPS 9999 SCT033 20/10 Q1006 R25/CLRD60 NOSIG RMK QFE746
Проноз погоды (TAF)UNOO 250755Z 2509/2609 29003G10MPS 9999 SCT020CB BKN030 BECMG 2515/2517 VRB01MPS TEMPO 2518/2602 2100 MIFG BR SCT005 BKN030CB BECMG 2603/2604 09005G14MPS BKN020CB TEMPO 2606/2609 3100 -SHRA SCT007 BKN020CB
NOTAMshow/hide NOTAM
AWOS   TABLE

Информация о ВПП

ВПП Длина ВПП (м.) Покрытие Курс ВПП Частота ILS
072501Асфальтобетон65108.3
252501Асфальтобетон245110.1

Диспетчерские позиции

Позывной Наименование органа УВД Частота
UNOO_APPОмск-Подход131.200
UNOO_GNDОмск-Руление121.700
UNOO_R_APPОмск-Круг119.050
UNOO_TWRОмск-Старт119.000



Спутниковое изображение